This demonstration page uses our WeatherBlox Daily Observations layout. Learn more.

Left ArrowRight Arrow

34.02893, -84.19858

Hourly Observations for October 16, 2019

Temp ( °F °C ) Dew Point ( °F °C ) Humidity (%) Winds ( mph kmh ) Pressure ( in mb ) Visibility ( mi km ) Precip ( " mm )
12:19 am 00:19 Cloudy with Mist and Fog 63 17.2 62 16.7 97 97 Calm 29.92 1013 3 4 0.00 0.00
12:53 am 00:53 Cloudy with Mist and Fog 62 16.7 62 16.7 100 100 VRB 3 6 29.90 1013 2 3 0.01 0.25
1:25 am 01:25 Cloudy with Mist and Fog 61 16.1 61 16.1 100 100 VRB 5 7 29.91 1013 2 3 0.00 0.00
1:53 am 01:53 Cloudy with Mist and Fog 61 16.1 61 16.1 100 100 E 6 9 29.88 1012 2 3 0.00 0.00
2:16 am 02:16 Cloudy with Mist and Fog 61 16.1 61 16.1 100 100 VRB 3 6 29.87 1011 2 3 0.00 0.00
2:27 am 02:27 Cloudy with Light Rain 61 16.1 61 16.1 100 100 Calm 29.87 1011 2 3 0.00 0.00
2:39 am 02:39 Cloudy with Light Rain 61 16.1 61 16.1 100 100 E 3 6 29.86 1011 2 3 0.00 0.00
2:47 am 02:47 Cloudy with Light Rain 61 16 61 16 100 100 NE 3 6 29.86 1011 3 5 0.00 0.00
2:53 am 02:53 Cloudy with Mist and Fog 61 16.1 61 16.1 100 100 VRB 3 6 29.84 1011 4 6 0.00 0.00
3:28 am 03:28 Cloudy with Light Rain 61 16.1 61 16.1 100 100 VRB 3 6 29.84 1010 3 4 0.02 0.51
3:48 am 03:48 Cloudy with Rain 61 16 61 16 100 100 NNE 3 6 29.85 1011 2 2 0.08 2.03
3:53 am 03:53 Cloudy with Light Rain 61 16.1 61 16.1 100 100 VRB 3 6 29.83 1010 2 3 0.09 2.29
4:00 am 04:00 Cloudy with Rain 61 16.1 61 16.1 100 100 VRB 5 7 29.83 1010 2 3 0.02 0.51
4:15 am 04:15 Cloudy with Light Rain 61 16.1 61 16.1 100 100 E 3 6 29.82 1010 4 6 0.03 0.76
4:34 am 04:34 Cloudy with Heavy Rain 61 16.1 61 16.1 100 100 Calm 29.82 1010 3 5 0.07 1.78
4:41 am 04:41 Cloudy with Rain 61 16.1 61 16.1 100 100 ENE 5 7 29.82 1010 3 4 0.09 2.29
4:50 am 04:50 Cloudy with Light Rain 61 16 61 16 100 100 Calm 29.82 1010 4 6 0.10 2.54
4:53 am 04:53 Cloudy with Light Rain 61 16.1 61 16.1 100 100 Calm 29.80 1009 4 6 0.10 2.54
5:03 am 05:03 Cloudy with Heavy Rain 61 16.1 61 16.1 100 100 Calm 29.81 1009 3 4 0.03 0.76
5:15 am 05:15 Cloudy with Light Rain 61 16.1 61 16.1 100 100 Calm 29.80 1009 4 6 0.05 1.27
5:40 am 05:40 Cloudy with Light Rain 61 16.1 61 16.1 100 100 Calm 29.81 1009 6 10 0.06 1.52
5:49 am 05:49 Cloudy with Heavy Rain 61 16 61 16 100 100 Calm 29.80 1009 2 3 0.13 3.30
5:50 am 05:50 Cloudy with Rain 61 16 61 16 100 100 Calm 29.81 1009 2 3 0.13 3.30
5:53 am 05:53 Cloudy with Rain 61 16.1 61 16.1 100 100 Calm 29.79 1009 3 4 0.14 3.56
6:03 am 06:03 Cloudy with Light Rain 61 16.1 60 15.6 97 97 NNW 5 7 29.82 1010 3 5 0.02 0.51
6:11 am 06:11 Cloudy with Rain 61 16.1 61 16.1 100 100 Calm 29.81 1009 3 4 0.05 1.27
6:17 am 06:17 Cloudy with Light Rain 61 16.1 61 16.1 100 100 N 3 6 29.80 1009 3 5 0.06 1.52
6:35 am 06:35 Cloudy 61 16.1 61 16.1 100 100 Calm 29.80 1009 10 16 0.07 1.78
6:53 am 06:53 Cloudy with Light Rain 61 16.1 61 16.1 100 100 Calm 29.79 1009 3 5 0.07 1.78
7:17 am 07:17 Cloudy 61 16.1 61 16.1 100 100 Calm 29.80 1009 7 11 0.00 0.00
7:38 am 07:38 Cloudy with Light Rain 61 16.1 60 15.6 97 97 Calm 29.80 1009 3 5 0.01 0.25
7:53 am 07:53 Cloudy with Mist and Fog 61 16.1 60 15.6 97 97 NNW 5 7 29.79 1009 6 10 0.01 0.25
8:53 am 08:53 Cloudy with Mist and Fog 62 16.7 61 16.1 96 96 NW 5 7 29.79 1009 3 5 0.00 0.00
8:59 am 08:59 Cloudy with Mist and Fog 62 16.7 61 16.1 96 96 NW 6 9 29.80 1009 5 8 0.00 0.00
9:50 am 09:50 Cloudy 64 18 63 17 94 94 W 7 11 29.80 1009 10 16 0.00 0.00
9:53 am 09:53 Cloudy 64 17.8 62 16.7 93 93 W 8 13 29.80 1009 10 16 0.00 0.00
10:20 am 10:20 Mostly Cloudy 66 18.9 62 16.7 87 87 WNW 8 13 29.80 1009 10 16 0.00 0.00
10:53 am 10:53 Cloudy 67 19.4 62 16.7 84 84 WNW 8 13 29.80 1009 10 16 0.00 0.00
11:53 am 11:53 Mostly Cloudy 69 20.6 60 15.6 73 73 WNW 14 22 29.83 1010 10 16 0.00 0.00
12:25 pm 12:25 Cloudy 68 20 59 15 73 73 WNW 15 24 29.83 1010 10 16 0.00 0.00
12:53 pm 12:53 Partly Cloudy 72 22.2 60 15.6 66 66 NW 18 30 29.83 1010 10 16 0.00 0.00
1:33 pm 13:33 Cloudy 70 21.1 59 15 68 68 NW 14 22 29.82 1010 10 16 0.00 0.00
1:50 pm 13:50 Mostly Cloudy 70 21 57 14 64 64 WNW 14 22 29.83 1010 10 16 0.00 0.00
1:53 pm 13:53 Mostly Cloudy 70 21.1 58 14.4 66 66 WNW 13 20 29.83 1010 10 16 0.00 0.00
2:03 pm 14:03 Mostly Cloudy 71 21.7 57 13.9 61 61 WNW 17 28 29.82 1010 10 16 0.00 0.00
2:53 pm 14:53 Mostly Cloudy 67 19.4 57 13.9 71 71 WNW 13 20 29.83 1010 10 16 0.00 0.00
3:53 pm 15:53 Mostly Cloudy 67 19.4 51 10.6 57 57 WNW 14 22 29.84 1010 10 16 0.00 0.00
3:56 pm 15:56 Mostly Sunny 67 19.4 52 11.1 59 59 WNW 14 22 29.84 1010 10 16 0.00 0.00
4:53 pm 16:53 Sunny 68 20 50 10 53 53 NW 9 15 29.84 1010 10 16 0.00 0.00
5:53 pm 17:53 Sunny 66 18.9 44 6.7 45 45 NNW 12 19 29.85 1011 10 16 0.00 0.00
6:53 pm 18:53 Sunny 61 16.1 43 6.1 52 52 NNW 9 15 29.86 1011 10 16 0.00 0.00
7:53 pm 19:53 Clear 58 14.4 44 6.7 60 60 WNW 5 7 29.88 1012 10 16 0.00 0.00
8:53 pm 20:53 Clear 56 13.3 45 7.2 67 67 WNW 5 7 29.90 1012 10 16 0.00 0.00
9:53 pm 21:53 Clear 56 13.3 42 5.6 60 60 NW 10 17 29.91 1013 10 16 0.00 0.00
10:53 pm 22:53 Clear 55 12.8 40 4.4 57 57 NW 10 17 29.93 1013 10 16 0.00 0.00
11:53 pm 23:53 Clear 54 12.2 39 3.9 57 57 NW 9 15 29.93 1014 10 16 0.00 0.00

Powered by AerisWeather